Jamestown, ND

4:20 AM CDT on September 21, 2017 (GMT -0500)
Jamestown Municipal

Weather History for KJMS - September, 2013

Change the Weather History Date:

Wednesday, September 18, 2013

  Actual Average Record
Temperature  
Mean Temperature 70 °F 56 °F  
Max Temperature 79 °F 69 °F 95 °F (1933)
Min Temperature 61 °F 44 °F 15 °F (1929)
Degree Days  
Heating Degree Days 0 9  
Month to date heating degree days 50 112  
Since 1 July heating degree days 94 178  
Cooling Degree Days 5 1  
Month to date cooling degree days 48 26  
Year to date cooling degree days 514 441  
Growing Degree Days 19 (Base 50)    
Moisture  
Dew Point 62 °F    
Average Humidity 81    
Maximum Humidity 100    
Minimum Humidity 62    
Precipitation  
Precipitation 0.01 in 0.06 in 1.97 in (1946)
Month to date precipitation 1.69 1.31  
Year to date precipitation 10.89 15.50  
Sea Level Pressure  
Sea Level Pressure 29.63 in    
Wind  
Wind Speed 7 mph (SSE)    
Max Wind Speed 21 mph    
Max Gust Speed 28 mph    
Visibility 4 miles    
Events Fog , Rain , Thunderstorm    
T = Trace of Precipitation, MM = Missing Value Source: NWS Daily Summary

Daily Weather History Graph

Daily Weather History Graph

Search for Another Location

Airport or City:

Trip Planner

Search our weather history database for the weather conditions in past years. The results will help you decide how hot, cold, wet, or windy it might be!

Date:

Astronomy

Sep. 18, 2013 Rise Set
Actual Time 7:16 AM CDT 7:39 PM CDT
Civil Twilight 6:46 AM CDT 8:10 PM CDT
Nautical Twilight 6:10 AM CDT 8:46 PM CDT
Astronomical Twilight 5:32 AM CDT 9:23 PM CDT
Moon 7:02 PM CDT (9/18) 6:19 AM CDT (9/18)
Length of Visible Light 13h 24m
Length of Day
12h 23m
Waxing Gibbous, 99% of the Moon is Illuminated
Sep 18
Waxing Gibbous
Sep 19
Full
Sep 26
Last Quarter
Oct 4
New
Oct 11
First Quarter

Hourly Weather History & Observations

Time (CDT) Temp. Dew Point Humidity Pressure Visibility Wind Dir Wind Speed Gust Speed Precip Events Conditions
12:11 AM 62.6 °F 59.0 °F 88% 29.74 in 10.0 mi SSE 12.7 mph - N/A   Overcast
12:56 AM 62.1 °F 59.0 °F 90% 29.74 in 9.0 mi SSE 12.7 mph 20.7 mph N/A   Overcast
1:08 AM 62.6 °F 59.0 °F 88% 29.74 in 9.0 mi SSE 11.5 mph - N/A   Overcast
1:56 AM 62.1 °F 60.1 °F 93% 29.74 in 6.0 mi SSE 9.2 mph - N/A   Overcast
2:56 AM 62.1 °F 60.1 °F 93% 29.72 in 6.0 mi SSE 10.4 mph - N/A   Overcast
3:56 AM 63.0 °F 60.1 °F 90% 29.74 in 6.0 mi WSW 6.9 mph - N/A   Overcast
4:46 AM 62.6 °F 60.8 °F 94% 29.72 in 2.0 mi Calm Calm - N/A   Overcast
4:56 AM 62.1 °F 61.0 °F 96% 29.70 in 1.8 mi SE 3.5 mph - N/A   Overcast
5:03 AM 62.6 °F 60.8 °F 94% 29.71 in 1.5 mi Calm Calm - N/A   Overcast
5:56 AM 62.1 °F 61.0 °F 96% 29.68 in 1.5 mi ESE 6.9 mph - N/A   Overcast
6:56 AM 61.0 °F 60.1 °F 97% 29.72 in 2.0 mi SSE 3.5 mph - N/A   Overcast
7:05 AM 60.8 °F 60.8 °F 100% 29.73 in 1.5 mi South 5.8 mph - N/A   Overcast
7:22 AM 60.8 °F 60.8 °F 100% 29.68 in 0.5 mi East 6.9 mph - N/A Fog Fog
7:45 AM 60.8 °F 60.8 °F 100% 29.58 in 0.2 mi East 20.7 mph 27.6 mph 0.00 in Fog , Rain Light Rain
7:56 AM 61.0 °F 60.1 °F 97% 29.58 in 0.5 mi East 13.8 mph 26.5 mph 0.00 in Fog Fog
8:11 AM 60.8 °F 60.8 °F 100% 29.61 in 1.5 mi SE 13.8 mph 20.7 mph N/A   Overcast
8:23 AM 60.8 °F 60.8 °F 100% 29.62 in 2.5 mi SE 17.3 mph 23.0 mph N/A   Overcast
8:37 AM 60.8 °F 60.8 °F 100% 29.62 in 3.0 mi SE 17.3 mph 23.0 mph N/A   Overcast
8:56 AM 62.1 °F 61.0 °F 96% 29.63 in 3.0 mi SSE 8.1 mph 17.3 mph N/A   Overcast
9:08 AM 62.6 °F 60.8 °F 94% 29.65 in 2.5 mi SSE 8.1 mph - N/A   Overcast
9:27 AM 62.6 °F 60.8 °F 94% 29.66 in 1.8 mi ESE 5.8 mph - N/A Thunderstorm Overcast
9:45 AM 62.6 °F 60.8 °F 94% 29.64 in 0.8 mi ESE 9.2 mph - N/A   Overcast
9:56 AM 62.1 °F 61.0 °F 96% 29.62 in 0.2 mi ESE 12.7 mph - N/A Fog Fog
10:40 AM 62.6 °F 62.6 °F 100% 29.63 in 0.5 mi ESE 15.0 mph 19.6 mph N/A Fog Fog
10:54 AM 62.6 °F 62.6 °F 100% 29.63 in 1.2 mi SE 13.8 mph - N/A   Overcast
10:56 AM 63.0 °F 62.1 °F 97% 29.63 in 1.2 mi SE 12.7 mph - N/A   Overcast
11:33 AM 62.6 °F 62.6 °F 100% 29.62 in 0.5 mi SE 11.5 mph - N/A Fog Fog
11:56 AM 63.0 °F 62.1 °F 97% 29.61 in 0.5 mi SE 12.7 mph - N/A Fog Fog
12:09 PM 62.6 °F 62.6 °F 100% 29.60 in 1.2 mi ESE 15.0 mph - N/A   Overcast
12:46 PM 64.4 °F 64.4 °F 100% 29.58 in 2.0 mi SE 12.7 mph - N/A   Overcast
12:56 PM 66.0 °F 64.0 °F 93% 29.58 in 2.5 mi SE 11.5 mph 20.7 mph N/A   Overcast
1:36 PM 66.2 °F 64.4 °F 94% 29.60 in 1.8 mi South 6.9 mph - N/A   Overcast
1:48 PM 66.2 °F 64.4 °F 94% 29.60 in 2.5 mi South 8.1 mph - N/A   Overcast
1:56 PM 66.9 °F 64.9 °F 93% 29.59 in 3.0 mi South 8.1 mph - N/A   Overcast
2:21 PM 68.0 °F 66.2 °F 94% 29.60 in 4.0 mi South 5.8 mph - N/A   Overcast
2:56 PM 69.1 °F 66.0 °F 90% 29.59 in 5.0 mi SW 5.8 mph - N/A   Overcast
3:19 PM 69.8 °F 66.2 °F 88% 29.59 in 6.0 mi South 4.6 mph - N/A   Overcast
3:56 PM 72.0 °F 66.0 °F 81% 29.57 in 8.0 mi South 4.6 mph - N/A   Overcast
4:36 PM 75.2 °F 66.2 °F 73% 29.59 in 10.0 mi SW 4.6 mph - N/A   Scattered Clouds
4:56 PM 77.0 °F 66.0 °F 69% 29.56 in 10.0 mi SSW 6.9 mph - N/A   Clear
5:56 PM 78.1 °F 64.9 °F 64% 29.56 in 10.0 mi WSW 5.8 mph - N/A   Clear
6:56 PM 78.1 °F 66.0 °F 66% 29.55 in 10.0 mi Calm Calm - N/A   Clear
7:56 PM 68.0 °F 64.0 °F 87% 29.57 in 10.0 mi NNW 3.5 mph - N/A   Clear
8:56 PM 66.0 °F 64.0 °F 93% 29.62 in 8.0 mi WNW 8.1 mph - N/A   Clear
9:56 PM 66.9 °F 64.0 °F 90% 29.61 in 10.0 mi NW 5.8 mph - N/A   Clear
10:56 PM 66.9 °F 63.0 °F 87% 29.60 in 10.0 mi West 3.5 mph - N/A   Partly Cloudy
11:27 PM 66.2 °F 62.6 °F 88% 29.56 in 10.0 mi SW 6.9 mph - 0.01 in Rain Light Rain
11:56 PM 66.0 °F 63.0 °F 90% 29.60 in 10.0 mi ENE 9.2 mph - 0.01 in   Clear